[[{"header":{"parameterUnit":"m.s-1","parameterCategory":1,"la1":30.2991,"la2":30.254,"lo1":-89.0895,"lo2":-89.0444,"dy":0.0017,"dx":0.0017,"nx":28,"ny":28,"refTime":"2025-05-20T09:00:00:Z","depth":0,"parameterNumber":2,"parameterNumberName":"U-component_of_WINDS"},"data":[0,0,0,0,0,0,0,0,0,0,0,0,0,0,0,0,0,0,0,0,0,0,0,0,0,0,0,0,0,0,0,0,0,0,0,0,0,0,0,0,0,0,0,0,0,0,0,0,0,0,0,0,0,0,0,0,0,0,1.1287,1.1288,0,1.1364,1.1365,1.1366,1.1316,1.1314,1.1312,1.1309,1.1392,1.1396,1.14,0,0,0,0,0,0,0,0,0,0,0,0,0,1.1099,1.1103,1.1287,1.1288,1.1289,1.1364,1.1365,1.1366,1.1317,1.1314,1.1311,1.1308,1.139,1.1395,1.1401,0,0,0,0,0,0,0,0,0,0,0,0,0,1.1179,1.1104,1.1287,1.1273,1.1272,1.1364,1.1365,1.1366,1.1317,1.1314,1.131,1.1307,1.1388,1.1395,1.1401,1.1511,0,0,1.1421,1.1424,0,0,0,0,0,0,0,0,1.1175,1.1186,1.1274,1.1274,1.1274,1.1327,1.1329,1.1415,1.1318,1.13,1.1309,1.1305,1.1373,1.1381,1.1403,1.1515,1.1519,1.1422,1.1426,1.1429,1.143,0,0,0,0,0,0,0,1.1169,1.1183,1.1317,1.1275,1.1275,1.1264,1.1272,1.1345,1.1355,1.1302,1.1298,1.1308,1.1372,1.1397,1.1404,1.152,1.1422,1.1427,1.1431,1.1434,1.1729,1.1732,0,0,0,0,0,0,1.1165,1.1178,1.1315,1.132,1.1215,1.127,1.1279,1.1313,1.1354,1.1357,1.1311,1.1305,1.1387,1.1397,1.1407,1.154,1.1429,1.1435,1.1438,1.1725,1.1729,1.1734,0,0,0,0,0,0,1.1161,1.1177,1.1312,1.1248,1.1264,1.1277,1.1317,1.1317,1.1341,1.1361,1.1363,1.1334,1.1385,1.1398,1.1486,1.1542,1.1438,1.1444,1.172,1.1726,1.1731,1.1806,0,0,0,0,0,0,1.1156,1.1176,1.1217,1.1249,1.1268,1.1388,1.132,1.1321,1.1352,1.1346,1.1383,1.1386,1.1383,1.1477,1.1493,1.1549,1.1449,1.1715,1.1723,1.173,1.1799,1.1814,1.1827,0,0,0,0,0,1.1149,1.1235,1.1219,1.1236,1.1319,1.1392,1.1402,1.1396,1.1357,1.1399,1.1412,1.1385,1.1533,1.1486,1.1504,1.1563,1.1712,1.1721,1.1729,1.1792,1.1811,1.1826,0,0,0,0,0,0,1.121,1.1239,1.1222,1.1321,1.1354,1.1383,1.1436,1.1416,1.1462,1.1454,1.1445,1.1454,1.1547,1.1564,1.151,1.1673,1.1616,1.1629,1.1659,1.1676,1.169,1.1685,1.1454,0,0,0,0,0,1.1234,1.129,1.1313,1.1398,1.1415,1.1423,1.1454,1.1447,1.1481,1.1495,1.1515,1.155,1.1605,1.1641,1.1693,1.1801,1.1809,1.1851,1.1865,1.1876,1.1887,1.1948,1.1967,1.1762,1.1762,1.1762,0,0,1.1286,1.1309,1.1345,1.1411,1.1436,1.1494,1.1435,1.1499,1.1543,1.1505,1.159,1.1606,1.1645,1.1744,1.1788,1.1761,1.1946,1.1887,1.1896,1.1901,1.1959,1.1978,1.1996,1.1768,1.1767,1.1766,0,0,1.1411,1.1433,1.1507,1.1534,1.1572,1.1577,1.1595,1.1627,1.1636,1.1721,1.1694,1.1747,1.1841,1.187,1.1898,1.2036,1.2013,1.2053,1.2126,1.2185,1.2201,1.2216,1.2267,1.2285,1.2064,1.2064,1.2064,0,1.1471,1.1557,1.1548,1.1615,1.1646,1.1614,1.169,1.1716,1.177,1.1792,1.176,1.1879,1.1903,1.2009,1.2043,1.2065,1.2087,1.2049,1.2199,1.2214,1.2227,1.2276,1.2295,1.2069,1.2068,1.2068,1.2067,0,1.163,1.1691,1.1746,1.1799,1.1835,1.1907,1.191,1.1948,1.1938,1.1947,1.2035,1.2062,1.212,1.2144,1.2135,1.225,1.2232,1.22,1.2143,1.2251,1.2297,1.2315,1.2075,1.2074,1.2072,1.2071,0,0,1.1795,1.1842,1.1863,1.1887,1.1928,1.1975,1.2045,1.2101,1.2135,1.2173,1.2234,1.2315,1.2286,1.2317,1.2311,1.2362,1.2472,1.2324,1.2325,1.2352,1.2603,1.2628,1.265,1.2457,1.2461,1.2464,1.2601,0,1.1923,1.2045,1.204,1.2155,1.2212,1.2183,1.2245,1.2277,1.2288,1.2339,1.235,1.2408,1.2365,1.2384,1.2433,1.2448,1.2523,1.2438,1.2515,1.2518,1.2507,1.2673,1.2699,1.2827,1.2618,1.2621,1.2623,0,1.2089,1.2133,1.2254,1.2287,1.2311,1.2367,1.2418,1.2466,1.2504,1.2508,1.2543,1.2529,1.2603,1.2543,1.2645,1.2588,1.2619,1.2632,1.2637,1.2644,1.2578,1.2687,1.2868,1.2888,1.2651,1.2649,1.2647,0,1.2199,1.2289,1.2373,1.2394,1.2435,1.2475,1.2494,1.2528,1.2562,1.2607,1.263,1.2683,1.2713,1.2756,1.2757,1.2714,1.2862,1.2802,1.2869,1.2869,1.2902,1.29,1.3092,1.292,1.2919,1.2919,1.2919,0,1.2344,1.2419,1.2423,1.2475,1.2559,1.2553,1.2637,1.2652,1.2683,1.2738,1.2716,1.2769,1.2768,1.2822,1.2824,1.2909,1.2923,1.2929,1.2929,1.2932,1.2932,1.2953,1.2945,1.2924,1.2923,1.2922,1.2921,0,1.2481,1.2487,1.2577,1.2608,1.2618,1.2679,1.2707,1.2757,1.2766,1.2837,1.2853,1.2867,1.293,1.2936,1.3009,1.301,1.3114,1.3104,1.3102,1.3101,1.3168,1.3162,1.3381,1.3411,1.3218,1.322,1.3221,0,1.2574,1.2631,1.2669,1.2705,1.2726,1.2783,1.2818,1.2815,1.2852,1.29,1.2945,1.3006,1.3054,1.3157,1.3175,1.3231,1.3223,1.3296,1.3231,1.3233,1.3226,1.3223,1.323,1.3309,1.3311,1.3312,1.3314,0,1.2738,1.2738,1.2789,1.2842,1.2884,1.2925,1.2964,1.2994,1.2996,1.304,1.3103,1.3141,1.3216,1.3278,1.3333,1.3354,1.3336,1.3334,1.3353,1.3357,1.3354,1.3359,1.3138,1.3329,1.3328,1.3326,1.3326,1.3325,1.2857,1.2907,1.2942,1.3,1.3029,1.3066,1.3115,1.313,1.3183,1.3244,1.3239,1.331,1.3348,1.342,1.3446,1.3503,1.3479,1.3505,1.3512,1.3519,1.3527,1.3344,1.3513,1.3512,1.3512,1.3512,1.3511,0,1.3021,1.3043,1.3096,1.3151,1.3197,1.3174,1.3216,1.3257,1.332,1.3356,1.3404,1.3479,1.3539,1.3561,1.362,1.3662,1.3655,1.3677,1.3675,1.3681,1.3545,1.3523,1.3682,1.3682,1.3682,1.3682,1.3682,1.3682,1.3112,1.3197,1.3202,1.3301,1.3322,1.3392,1.3418,1.3453,1.3482,1.3566,1.3615,1.3629,1.3661,1.3722,1.3777,1.3782,1.3806,1.3833,1.3835,1.3707,1.369,1.3674,1.3654,1.3838,1.3838,1.3967,1.3968,1.3969]},{"header":{"parameterUnit":"m.s-1","parameterCategory":1,"la1":30.2991,"la2":30.254,"lo1":-89.0895,"lo2":-89.0444,"dy":0.0017,"dx":0.0017,"nx":28,"ny":28,"refTime":"2025-05-20T09:00:00:Z","depth":0,"parameterNumber":3,"parameterNumberName":"V-component_of_WINDS"},"data":[0,0,0,0,0,0,0,0,0,0,0,0,0,0,0,0,0,0,0,0,0,0,0,0,0,0,0,0,0,0,0,0,0,0,0,0,0,0,0,0,0,0,0,0,0,0,0,0,0,0,0,0,0,0,0,0,0,0,1.4609,1.4609,0,1.4629,1.4629,1.4629,1.4573,1.4572,1.457,1.4568,1.4587,1.4589,1.4591,0,0,0,0,0,0,0,0,0,0,0,0,0,1.4521,1.4523,1.4609,1.4609,1.4609,1.4629,1.4629,1.4629,1.4574,1.4572,1.4569,1.4567,1.4586,1.4589,1.4591,0,0,0,0,0,0,0,0,0,0,0,0,0,1.4552,1.4523,1.4609,1.4584,1.4582,1.4629,1.4629,1.463,1.4574,1.4572,1.4569,1.4567,1.4585,1.4589,1.4592,1.4663,0,0,1.4601,1.4603,0,0,0,0,0,0,0,0,1.455,1.4555,1.4587,1.4586,1.4584,1.4596,1.4605,1.4641,1.4575,1.4577,1.4568,1.4565,1.4592,1.4594,1.4604,1.4664,1.4665,1.4602,1.4604,1.4605,1.4606,0,0,0,0,0,0,0,1.4548,1.4554,1.4617,1.4588,1.4586,1.4571,1.4573,1.4612,1.4599,1.4577,1.4573,1.4576,1.459,1.4601,1.4604,1.4665,1.4602,1.4604,1.4606,1.4608,1.4786,1.4789,0,0,0,0,0,0,1.4549,1.4553,1.4616,1.4617,1.456,1.4575,1.4577,1.4595,1.4598,1.4596,1.4578,1.4573,1.4597,1.46,1.4604,1.4689,1.4605,1.4608,1.461,1.4783,1.4787,1.479,0,0,0,0,0,0,1.4548,1.4556,1.4615,1.4584,1.459,1.4579,1.46,1.4596,1.4607,1.4599,1.4597,1.4591,1.4595,1.46,1.4649,1.4689,1.4609,1.4612,1.478,1.4784,1.4788,1.4859,0,0,0,0,0,0,1.4545,1.4555,1.4583,1.4585,1.4592,1.4661,1.4602,1.4599,1.4613,1.4607,1.4611,1.4609,1.4593,1.4645,1.4653,1.4692,1.4615,1.4776,1.4782,1.4787,1.4853,1.4865,1.4876,0,0,0,0,0,1.4542,1.4601,1.4584,1.4592,1.4626,1.4663,1.4667,1.4648,1.4616,1.4643,1.4639,1.4609,1.4683,1.465,1.4658,1.47,1.4774,1.478,1.4787,1.4848,1.4863,1.4875,0,0,0,0,0,0,1.4602,1.4601,1.4582,1.4643,1.4654,1.4653,1.4687,1.4664,1.4683,1.4677,1.4652,1.4653,1.4708,1.4708,1.4672,1.477,1.4723,1.4731,1.4767,1.4781,1.4792,1.4791,1.4617,0,0,0,0,0,1.4623,1.4653,1.465,1.4704,1.471,1.4698,1.4713,1.4698,1.4708,1.4712,1.471,1.472,1.4746,1.4763,1.4787,1.4853,1.4854,1.4885,1.4896,1.4906,1.4913,1.495,1.4964,1.4811,1.4811,1.4811,0,0,1.4665,1.4668,1.4688,1.4716,1.4722,1.4755,1.4702,1.4738,1.4761,1.4717,1.4764,1.4764,1.4773,1.4832,1.4858,1.4834,1.4956,1.4914,1.4921,1.4924,1.4958,1.4972,1.4985,1.4815,1.4814,1.4814,0,0,1.4758,1.4763,1.481,1.4818,1.4828,1.482,1.4831,1.4835,1.4833,1.4881,1.4848,1.4876,1.492,1.4929,1.4939,1.5038,1.5012,1.5046,1.5105,1.514,1.5152,1.5163,1.5199,1.5212,1.5053,1.5054,1.5054,0,1.4809,1.4856,1.4836,1.4875,1.4888,1.4851,1.4898,1.4906,1.4924,1.4934,1.4907,1.4964,1.4967,1.5028,1.5053,1.5062,1.5074,1.5045,1.5153,1.5163,1.5172,1.5207,1.522,1.5058,1.5057,1.5057,1.5056,0,1.4919,1.4953,1.4989,1.5008,1.5026,1.5068,1.5054,1.5074,1.5058,1.5053,1.5102,1.5105,1.5129,1.5142,1.5125,1.5201,1.5186,1.5157,1.511,1.5192,1.5224,1.5236,1.5064,1.5062,1.5061,1.506,0,0,1.505,1.5059,1.5072,1.5082,1.5091,1.5117,1.5158,1.5182,1.5201,1.5214,1.5248,1.5288,1.5261,1.5273,1.5257,1.5289,1.5368,1.5255,1.5255,1.5277,1.5453,1.5476,1.5491,1.5351,1.5353,1.5355,1.5452,0,1.5143,1.5214,1.5198,1.5268,1.53,1.5265,1.5301,1.5311,1.5307,1.5333,1.5328,1.5358,1.5319,1.5326,1.5356,1.5352,1.5403,1.5345,1.5383,1.5384,1.5382,1.5508,1.5532,1.5623,1.5464,1.5467,1.5468,0,1.526,1.528,1.5355,1.5361,1.5374,1.5406,1.5428,1.5453,1.5464,1.5459,1.5474,1.5452,1.5493,1.5446,1.5502,1.5463,1.5477,1.5478,1.5481,1.5484,1.5432,1.5515,1.5652,1.5666,1.5487,1.5486,1.5484,0,1.535,1.5395,1.5446,1.5454,1.5463,1.5487,1.5491,1.55,1.5516,1.5535,1.5545,1.5568,1.5581,1.56,1.5585,1.5552,1.5644,1.5595,1.5642,1.5642,1.5663,1.5662,1.5805,1.5671,1.5671,1.5671,1.5671,0,1.5456,1.5503,1.5486,1.5517,1.5569,1.555,1.5602,1.5602,1.561,1.5641,1.5612,1.5641,1.562,1.5648,1.5636,1.5686,1.5691,1.5689,1.5685,1.5692,1.5692,1.5701,1.5695,1.5674,1.5674,1.5673,1.5672,0,1.5564,1.5555,1.5608,1.5613,1.5615,1.5653,1.5657,1.5686,1.568,1.572,1.5728,1.5719,1.5751,1.5738,1.577,1.5763,1.5826,1.5814,1.5823,1.582,1.5868,1.5864,1.6022,1.6042,1.5895,1.5896,1.5898,0,1.5633,1.5668,1.5677,1.5696,1.5704,1.5734,1.5751,1.5734,1.5753,1.5769,1.5796,1.5825,1.5847,1.5899,1.5895,1.592,1.5909,1.5963,1.5913,1.5919,1.5911,1.591,1.5914,1.5973,1.5975,1.5976,1.5977,0,1.5756,1.575,1.5776,1.5801,1.5823,1.5841,1.5857,1.5874,1.5858,1.5881,1.5913,1.593,1.5965,1.5994,1.6017,1.6021,1.5997,1.5993,1.6005,1.6013,1.6017,1.6017,1.5852,1.599,1.5988,1.5987,1.5987,1.5986,1.5847,1.5878,1.5889,1.592,1.593,1.5947,1.5975,1.5974,1.6001,1.6028,1.6016,1.6054,1.6065,1.6093,1.61,1.613,1.6108,1.6126,1.6131,1.6135,1.6142,1.6012,1.6133,1.6133,1.6133,1.6132,1.6132,0,1.5969,1.5976,1.6004,1.6028,1.6053,1.6029,1.6046,1.6067,1.6101,1.6114,1.6137,1.6175,1.6204,1.6203,1.623,1.6253,1.6243,1.6261,1.6259,1.6261,1.6159,1.6146,1.6269,1.6269,1.6269,1.6269,1.6269,1.6269,1.6036,1.6087,1.6083,1.614,1.6145,1.6183,1.6195,1.621,1.622,1.6264,1.6289,1.6288,1.6296,1.6323,1.6349,1.6348,1.6359,1.6382,1.6377,1.6282,1.6268,1.6255,1.6243,1.6384,1.6384,1.6477,1.6477,1.6478]}]]